Meteo pe oră la Aliağa

Astăzi, 19 Ianuarie, Marţi

Timp Temperatura Precipitaţii Vânt Presiune Umiditate
00:00 -4°C° 0 mm 4 m/s 761 mmHg 73%
01:00 -5°C° 0 mm 4 m/s 761 mmHg 72%
02:00 -5°C° 0 mm 3 m/s 761 mmHg 71%
03:00 -5°C° 0 mm 3 m/s 761 mmHg 70%
04:00 -5°C° 0 mm 3 m/s 761 mmHg 68%
05:00 -5°C° 0 mm 3 m/s 761 mmHg 67%
06:00 -5°C° 0 mm 3 m/s 761 mmHg 65%
07:00 -5°C° 0 mm 3 m/s 761 mmHg 63%
08:00 -5°C° 0 mm 3 m/s 761 mmHg 61%
09:00 -2°C° 0 mm 3 m/s 762 mmHg 54%
10:00 -1°C° 0 mm 3 m/s 762 mmHg 46%
11:00 +1°C° 0 mm 3 m/s 763 mmHg 38%
12:00 +2°C° 0 mm 3 m/s 762 mmHg 36%
13:00 +3°C° 0 mm 4 m/s 762 mmHg 35%
14:00 +3°C° 0 mm 4 m/s 761 mmHg 34%
15:00 +1°C° 0 mm 4 m/s 761 mmHg 39%
16:00 0°C° 0 mm 4 m/s 762 mmHg 43%
17:00 -1°C° 0 mm 4 m/s 762 mmHg 48%
18:00 -2°C° 0 mm 4 m/s 762 mmHg 52%
19:00 -2°C° 0 mm 3 m/s 763 mmHg 56%
20:00 -2°C° 0 mm 3 m/s 763 mmHg 60%
21:00 -4°C° 0 mm 3 m/s 763 mmHg 61%
22:00 -4°C° 0 mm 3 m/s 764 mmHg 62%
23:00 -4°C° 0 mm 3 m/s 764 mmHg 64%

Mâine, 20 Ianuarie, Miercuri

Timp Temperatura Precipitaţii Vânt Presiune Umiditate
00:00 -4°C° 0 mm 3 m/s 764 mmHg 64%
01:00 -3°C° 0 mm 2 m/s 764 mmHg 64%
02:00 -3°C° 0 mm 2 m/s 764 mmHg 64%
03:00 -3°C° 0 mm 2 m/s 765 mmHg 64%
04:00 -3°C° 0 mm 2 m/s 765 mmHg 64%
05:00 -3°C° 0 mm 2 m/s 765 mmHg 64%
06:00 -3°C° 0 mm 2 m/s 765 mmHg 64%
07:00 -3°C° 0 mm 2 m/s 766 mmHg 64%
08:00 -3°C° 0 mm 2 m/s 766 mmHg 64%
09:00 -1°C° 0 mm 2 m/s 766 mmHg 57%
10:00 +2°C° 0 mm 2 m/s 766 mmHg 50%
11:00 +4°C° 0 mm 2 m/s 767 mmHg 43%
12:00 +5°C° 0 mm 2 m/s 766 mmHg 42%
13:00 +7°C° 0 mm 1 m/s 766 mmHg 40%
14:00 +8°C° 0 mm 1 m/s 766 mmHg 39%
15:00 +7°C° 0 mm 1 m/s 766 mmHg 44%
16:00 +5°C° 0 mm 1 m/s 766 mmHg 49%
17:00 +4°C° 0 mm 1 m/s 766 mmHg 54%
18:00 +4°C° 0 mm 1 m/s 766 mmHg 55%
19:00 +2°C° 0 mm 2 m/s 766 mmHg 56%
20:00 +1°C° 0 mm 2 m/s 766 mmHg 57%
21:00 +1°C° 0 mm 2 m/s 766 mmHg 56%
22:00 +1°C° 0 mm 2 m/s 766 mmHg 55%
23:00 0°C° 0 mm 3 m/s 766 mmHg 54%

Poimâine, 21 Ianuarie, Joi

Timp Temperatura Precipitaţii Vânt Presiune Umiditate
00:00 0°C° 0 mm 3 m/s 766 mmHg 54%
01:00 -1°C° 0 mm 3 m/s 766 mmHg 54%
02:00 -1°C° 0 mm 3 m/s 766 mmHg 53%
03:00 -1°C° 0 mm 3 m/s 766 mmHg 53%
04:00 -1°C° 0 mm 3 m/s 765 mmHg 53%
05:00 -1°C° 0 mm 3 m/s 765 mmHg 52%
06:00 0°C° 0 mm 3 m/s 765 mmHg 51%
07:00 0°C° 0 mm 3 m/s 765 mmHg 50%
08:00 0°C° 0 mm 3 m/s 766 mmHg 49%
09:00 +2°C° 0 mm 3 m/s 766 mmHg 46%
10:00 +4°C° 0 mm 3 m/s 766 mmHg 42%
11:00 +7°C° 0 mm 3 m/s 766 mmHg 39%
12:00 +8°C° 0 mm 3 m/s 765 mmHg 40%
13:00 +9°C° 0 mm 3 m/s 765 mmHg 41%
14:00 +10°C° 0 mm 3 m/s 765 mmHg 42%
15:00 +9°C° 0 mm 3 m/s 765 mmHg 48%
16:00 +8°C° 0 mm 3 m/s 764 mmHg 53%
17:00 +7°C° 0 mm 3 m/s 764 mmHg 59%
18:00 +5°C° 0 mm 3 m/s 765 mmHg 61%
19:00 +5°C° 0 mm 3 m/s 765 mmHg 63%
20:00 +5°C° 0 mm 3 m/s 765 mmHg 65%
21:00 +4°C° 0 mm 3 m/s 765 mmHg 67%
22:00 +4°C° 0 mm 3 m/s 764 mmHg 69%
23:00 +4°C° 0 mm 3 m/s 764 mmHg 71%

22 Ianuarie, Vineri

Timp Temperatura Precipitaţii Vânt Presiune Umiditate
00:00 +4°C° 0 mm 3 m/s 764 mmHg 72%
01:00 +4°C° 0 mm 3 m/s 764 mmHg 73%
02:00 +4°C° 0 mm 3 m/s 764 mmHg 74%
03:00 +4°C° 0 mm 3 m/s 764 mmHg 74%
04:00 +4°C° 0 mm 3 m/s 764 mmHg 75%
05:00 +4°C° 0 mm 4 m/s 763 mmHg 76%
06:00 +4°C° 0 mm 4 m/s 763 mmHg 75%
07:00 +5°C° 0 mm 4 m/s 764 mmHg 75%
08:00 +5°C° 0 mm 4 m/s 764 mmHg 75%
09:00 +5°C° 0.1 mm 4 m/s 763 mmHg 75%
10:00 +6°C° 0.1 mm 4 m/s 763 mmHg 76%
11:00 +7°C° 0.1 mm 4 m/s 763 mmHg 76%
12:00 +8°C° 0.1 mm 4 m/s 763 mmHg 76%
13:00 +10°C° 0.1 mm 4 m/s 763 mmHg 76%
14:00 +10°C° 0.1 mm 5 m/s 762 mmHg 76%
15:00 +10°C° 0.1 mm 4 m/s 762 mmHg 79%
16:00 +10°C° 0.1 mm 4 m/s 762 mmHg 83%
17:00 +8°C° 0.1 mm 4 m/s 761 mmHg 86%
18:00 +8°C° 0 mm 4 m/s 761 mmHg 87%
19:00 +7°C° 0 mm 4 m/s 762 mmHg 87%
20:00 +7°C° 0 mm 4 m/s 762 mmHg 88%
21:00 +7°C° 0 mm 4 m/s 761 mmHg 88%
22:00 +7°C° 0 mm 4 m/s 761 mmHg 88%
23:00 +7°C° 0 mm 4 m/s 761 mmHg 88%

23 Ianuarie, Sâmbătă

Timp Temperatura Precipitaţii Vânt Presiune Umiditate
00:00 +7°C° 0 mm 4 m/s 761 mmHg 87%
01:00 +7°C° 0 mm 4 m/s 761 mmHg 87%
02:00 +7°C° 0 mm 4 m/s 760 mmHg 87%
03:00 +7°C° 0 mm 4 m/s 760 mmHg 88%
04:00 +7°C° 0 mm 5 m/s 760 mmHg 89%
05:00 +7°C° 0 mm 5 m/s 759 mmHg 89%
06:00 +7°C° 0 mm 5 m/s 760 mmHg 89%
07:00 +7°C° 0 mm 5 m/s 760 mmHg 89%
08:00 +7°C° 0 mm 5 m/s 760 mmHg 89%
09:00 +8°C° 0.1 mm 5 m/s 760 mmHg 85%
10:00 +9°C° 0.1 mm 6 m/s 759 mmHg 81%
11:00 +10°C° 0.1 mm 6 m/s 759 mmHg 77%
12:00 +11°C° 0.2 mm 7 m/s 759 mmHg 71%
13:00 +12°C° 0.2 mm 8 m/s 758 mmHg 66%
14:00 +15°C° 0.2 mm 9 m/s 758 mmHg 61%
15:00 +13°C° 0.2 mm 9 m/s 757 mmHg 66%
16:00 +12°C° 0.2 mm 9 m/s 757 mmHg 70%
17:00 +11°C° 0.2 mm 8 m/s 756 mmHg 75%
18:00 +11°C° 0.1 mm 8 m/s 756 mmHg 77%
19:00 +10°C° 0.1 mm 8 m/s 756 mmHg 79%
20:00 +10°C° 0.1 mm 7 m/s 756 mmHg 81%
21:00 +10°C° 0.2 mm 7 m/s 755 mmHg 80%
22:00 +10°C° 0.2 mm 8 m/s 755 mmHg 80%
23:00 +9°C° 0.2 mm 8 m/s 754 mmHg 80%

24 Ianuarie, Duminică

Timp Temperatura Precipitaţii Vânt Presiune Umiditate
00:00 +9°C° 0.8 mm 8 m/s 754 mmHg 83%
01:00 +8°C° 0.8 mm 9 m/s 753 mmHg 86%
02:00 +8°C° 0.8 mm 9 m/s 753 mmHg 89%
03:00 +9°C° 0.6 mm 10 m/s 752 mmHg 86%
04:00 +9°C° 0.6 mm 11 m/s 752 mmHg 84%
05:00 +9°C° 0.6 mm 12 m/s 751 mmHg 82%
06:00 +9°C° 0.6 mm 11 m/s 752 mmHg 83%
07:00 +11°C° 0.6 mm 10 m/s 752 mmHg 84%
08:00 +11°C° 0.6 mm 9 m/s 752 mmHg 85%
09:00 +12°C° 0.3 mm 9 m/s 752 mmHg 78%
10:00 +13°C° 0.3 mm 9 m/s 753 mmHg 72%
11:00 +15°C° 0.3 mm 9 m/s 753 mmHg 65%
12:00 +15°C° 0.1 mm 9 m/s 753 mmHg 64%
13:00 +16°C° 0.1 mm 8 m/s 753 mmHg 63%
14:00 +16°C° 0.1 mm 8 m/s 753 mmHg 62%
15:00 +15°C° 0 mm 7 m/s 753 mmHg 66%
16:00 +14°C° 0 mm 6 m/s 753 mmHg 70%
17:00 +13°C° 0 mm 5 m/s 753 mmHg 74%
18:00 +13°C° 0 mm 5 m/s 753 mmHg 78%
19:00 +12°C° 0 mm 5 m/s 754 mmHg 81%
20:00 +10°C° 0 mm 5 m/s 754 mmHg 85%
21:00 +10°C° 0 mm 5 m/s 754 mmHg 85%
22:00 +10°C° 0 mm 6 m/s 754 mmHg 86%
23:00 +10°C° 0 mm 6 m/s 754 mmHg 87%
Arată mai mult

Formular de consimțământ

Meteoprog și furnizorii noștri de servicii pot stoca și accesa date personale, precum cookies, identificatori de dispozitiv sau alte tehnologii similare pe dispozitivul dumneavoastră și procesa astfel de date pentru a personaliza conținutul și reclamele, dar și pentru a oferi caracteristici de social media și pentru a analiza traficul.

  • Stocarea și/sau accesarea informațiilor pe dispozitivul dumneavoastră

    Cookies, identificatori de dispozitiv sau alte informații pot fi stocate sau accesate pe dispozitiv în scopurile indicate mai sus.

  • Reclame și conținut personalizat, evaluarea reclamelor și a conținutului, informații despre audiențe și dezvoltarea produselor

    Reclamele și conținutul pot fi personalizate pe baza unui profil. Pot fi adăugate date suplimentare pentru a personaliza mai bine reclamele și conținutul. Performanța reclamelor și conținutului poate fi măsurată. Pot fi obținute informații despre utilizatorii care au văzut reclamele și conținutul. Aceste date pot fi utilizate pentru a dezvolta sau îmbunătăți experiența utilizatorilor, sistemele și software-ul.

Dând clic pe ‘Sunt de acord’, permiteți utilizarea cookie-urilor menționate, a identificatorilor de dispozitiv, balizelor web sau altor tehnologii similare. Setările pot fi modificate din browser-ul dispozitivului dumneavoastră.

În anumite scopuri, interesele legitime pot prima asupra consimțământului. Puteți citi mai multe informații în acest sens în Politica privind Confidențialitatea Datelor și Cookie.